Cosmos 2297 - Orbit

View from above orbital plane
View from above orbital plane
View from above satellite
View from above satellite

Ground track
Ground track

The orbit data is extracted from the following two-line orbital elements,

1 23404U 94077A   13138.72685653  .00000306  00000-0  18797-3 0  4919
2 23404 071.0136 172.6791 0017181 254.6883 244.1210 14.13326549953470
Epoch (UTC): 18 May 2013 17:26:40
Eccentricity: 0.0017181
inclination: 71.0136°
perigee height: 835 km
apogee height: 860 km
right ascension of ascending node: 172.6791°
argument of perigee: 254.6883°
revolutions per day: 14.13326549
mean anomaly at epoch: 244.1210°
orbit number at epoch: 95347

The dashed part of the orbit path shows where the satellite is in the earth's shadow,  

Developed and maintained by Chris Peat, Heavens-Above GmbH. Please read the updated FAQ before sending e-mail. Imprint. DLR